Gewässerkundlicher Dienst Bayern
  • English version

Aktuelle Messwerte Kaubenheim

Lufttemperatur vom 29.04.2026 bis zum 05.05.2026
Hinweis
Luftfeuchtegeber defekt
Lufttemperatur vom 29.04.2026 bis zum 05.05.2026
DatumLufttemperatur [°C]
05.05.2026 02:0014,4
05.05.2026 01:0014,5
05.05.2026 00:0014,6
04.05.2026 23:0015,3
04.05.2026 22:0016,8
04.05.2026 21:0016,6
04.05.2026 20:0018,6
04.05.2026 19:0020,1
04.05.2026 18:0020,7
04.05.2026 17:0021,4
04.05.2026 16:0022,1
04.05.2026 15:0023,1
04.05.2026 14:0022,9
04.05.2026 13:0022,8
04.05.2026 12:0022,1
04.05.2026 11:0021,4
04.05.2026 10:0020,3
04.05.2026 09:0018,1
04.05.2026 08:0013,0
04.05.2026 07:009,8
04.05.2026 06:007,0
04.05.2026 05:008,1
04.05.2026 04:0010,6
04.05.2026 03:0011,1
04.05.2026 02:0010,3
04.05.2026 01:0011,1
04.05.2026 00:0014,9
03.05.2026 23:0017,3
03.05.2026 22:0015,4
03.05.2026 21:0017,4
03.05.2026 20:0020,1
03.05.2026 19:0022,2
03.05.2026 18:0023,4
03.05.2026 17:0023,4
03.05.2026 16:0024,0
03.05.2026 15:0024,5
03.05.2026 14:0024,2
03.05.2026 13:0023,4
03.05.2026 12:0022,6
03.05.2026 11:0022,2
03.05.2026 10:0020,9
03.05.2026 09:0017,6
03.05.2026 08:0012,2
03.05.2026 07:008,2
03.05.2026 06:005,3
03.05.2026 05:004,1
03.05.2026 04:004,3
03.05.2026 03:004,9
03.05.2026 02:005,7
03.05.2026 01:006,4
03.05.2026 00:007,2
02.05.2026 23:008,5
02.05.2026 22:0010,2
02.05.2026 21:0013,3
02.05.2026 20:0018,9
02.05.2026 19:0023,4
02.05.2026 18:0025,1
02.05.2026 17:0026,0
02.05.2026 16:0026,8
02.05.2026 15:0026,3
02.05.2026 14:0025,5
02.05.2026 13:0024,3
02.05.2026 12:0023,0
02.05.2026 11:0021,7
02.05.2026 10:0019,7
02.05.2026 09:0018,3
02.05.2026 08:0012,6
02.05.2026 07:006,7
02.05.2026 06:001,6
02.05.2026 05:000,6
02.05.2026 04:001,3
02.05.2026 03:001,8
02.05.2026 02:003,0
02.05.2026 01:004,0
02.05.2026 00:005,2
01.05.2026 23:006,6
01.05.2026 22:008,2
01.05.2026 21:0011,8
01.05.2026 20:0016,6
01.05.2026 19:0020,0
01.05.2026 18:0021,6
01.05.2026 17:0022,2
01.05.2026 16:0022,2
01.05.2026 15:0021,7
01.05.2026 14:0021,2
01.05.2026 13:0020,1
01.05.2026 12:0019,2
01.05.2026 11:0017,7
01.05.2026 10:0016,1
01.05.2026 09:0014,0
01.05.2026 08:0010,3
01.05.2026 07:006,1
01.05.2026 06:002,7
01.05.2026 05:002,6
01.05.2026 04:002,8
01.05.2026 03:002,5
01.05.2026 02:003,1
01.05.2026 01:004,8
01.05.2026 00:008,3
30.04.2026 23:009,6
30.04.2026 22:008,8
30.04.2026 21:0011,3
30.04.2026 20:0013,0
30.04.2026 19:0015,3
30.04.2026 18:0016,7
30.04.2026 17:0017,1
30.04.2026 16:0016,8
30.04.2026 15:0016,3
30.04.2026 14:0015,4
30.04.2026 13:0014,6
30.04.2026 12:0013,4
30.04.2026 11:0011,7
30.04.2026 10:0010,1
30.04.2026 09:008,8
30.04.2026 08:007,0
30.04.2026 07:004,0
30.04.2026 06:001,8
30.04.2026 05:001,3
30.04.2026 04:002,3
30.04.2026 03:003,1
30.04.2026 02:004,6
30.04.2026 01:005,4
30.04.2026 00:006,0
29.04.2026 23:007,1
29.04.2026 22:009,0
29.04.2026 21:0010,6
29.04.2026 20:0012,3
29.04.2026 19:0015,0
29.04.2026 18:0017,0
29.04.2026 17:0017,7
29.04.2026 16:0017,7
29.04.2026 15:0017,5
29.04.2026 14:0017,1
29.04.2026 13:0016,3
29.04.2026 12:0015,7
29.04.2026 11:0015,0
29.04.2026 10:0013,7
29.04.2026 09:0011,9
29.04.2026 08:009,5
29.04.2026 07:007,2
29.04.2026 06:005,0
29.04.2026 05:005,0
29.04.2026 04:005,5
29.04.2026 03:006,1
29.04.2026 02:007,0
29.04.2026 01:007,9
29.04.2026 00:008,9
Ihre Auswahl wurde erfolgreich in den Download-Korb gelegt.